Location: D�pe
(52.6057°N, 8.1808°E)
Time: 00:57:23
(UTC+00:00)

Cosmos 1408 - Pass Details

Date: 29 October 2020
Orbit: 470 x 492 km, 82.6° (Epoch: 23 November)

Event Time Altitude Azimuth Distance (km) Brightness Sun altitude
Rises 18:11:38 0° 344° (NNW) 2,557 6.5 -20.1°
Reaches altitude 10° 18:13:47 10° 338° (NNW) 1,676 5.6 -20.4°
Maximum altitude 18:17:18 46° 265° (W) 668 3.6 -21.0°
Drops below altitude 10° 18:20:49 10° 192° (SSW) 1,674 5.3 -21.5°
Sets 18:22:58 0° 186° (S) 2,553 6.2 -21.8°
